Location: Newark
(25.0000°N, 73.5000°E)
Time: 19:40:05
(UTC+00:00)

STARLINK-2647 - Pass Details

Date: 16 June 2021
Orbit: 546 x 548 km, 53.1° (Epoch: 05 August)

Event Time Altitude Azimuth Distance (km) Brightness Sun altitude
Exits shadow 23:33:41 11° 218° (SW) 1,770 5.6 -9.3°
Maximum altitude 23:37:42 89° 138° (SE) 549 3.6 -8.5°
Drops below altitude 10° 23:41:50 10° 40° (NE) 1,814 7.6 -7.7°
Sets 23:44:04 0° 40° (NE) 2,710 8.7 -7.3°
